Weather in Malino

Russia / Moscow Oblast     55°06′46″N   38°10′36″E
temp.,
°C
wind,
m/s
gust,
m/s
humid.,
%
clouds,
%
prec.,
mm/h
press.,
hPa
HPBL,
m
19 september, sun
sun1900:00+5e61367100 0.0 1023464
03:00+5e61367100 0.0 1022475
06:00+5e71371100 0.0 1022490
09:00+5e71474100 0.6 1021683
12:00+7ese71368100 0.5 1021878
15:00+7e71474100 1.6 1020802
18:00+7e81681100 1.3 1019778
21:00+6e91788100 3.6 1018837
20 september, mon
mon2000:00+6e101794100 6.1 1016771
03:00+6e101895100 12.8 1015835
06:00+5e101895100 3.3 1014848
09:00+5e91795100 8.1 1014947
12:00+5e91694100 1.9 1015885
15:00+6e91494100 3.4 1015905
18:00+6e91594100 0.3 1015844
21:00+6e91594100 1.2 1014834
21 september, tue
tue2100:00+6e91595100 4.3 1014794
03:00+6ese81396100 6.9 1013658
06:00+6ese61297100 0.1 1013542
09:00+7ese61197100 0.8 1013523
12:00+9ese71093100 0.3 1012612
15:00+10ese71187100 0.5 1012886
18:00+8ese61197100 0.7 1012586
21:00+9ese4898100 1.8 1013495
22 september, wed
wed2200:00+8se2497100 0.3 1013250
03:00+8sse0192100 0.6 101316
06:00+7ese119543 0.1 101315
09:00+9s238442 0.1 1014496
12:00+11sse356592 0.0 10151169
15:00+11s4562100 0.1 10161376
18:00+9e1175100 0.0 101724
21:00+8e2490100 0.2 1018202
23 september, thu
thu2300:00+8ene2392100 0.1 1017125
03:00+7ene3594100 0.1 1017176
06:00+8ene4896100 0.1 1016297
09:00+8e4893100 0.3 1016361
12:00+11se4584100 0.6 1015618
15:00+12ese2375100 1.1 1014577
18:00+10sse1184100 0.7 101418
21:00+7sw22905 0.9 101424